Home   Weather   Saint-Hyacinthe   Past weeks

Flag for Canada Past Weather in Saint-Hyacinthe, Quebec, Canada — Yesterday and Last 2 Weeks

Now
43 °F

Light rain. Overcast.


Feels Like: 38 °F
Forecast: 43 / 55 °F
Wind: 8 mph from Northeast

Location: Saint Hubert Airport

Current Time: May 1, 2017 at 12:31:48 am

Latest Report: May 1, 2017 at 12:00 am


Visibility: 9 mi

Pressure: 30.07 "Hg

Humidity: 93%

Dew Point: 41 °F

Location of Saint-HyacintheLocation

Past Weather in Saint-Hyacinthe — Graph

°F

Saint-Hyacinthe Temperature Yesterday

Maximum temperature yesterday: 45 °F (at 1:44 pm)
Minimum temperature yesterday: 34 °F (at 6:00 am)
Average temperature yesterday: 41 °F

High & Low Weather Summary for the Past Weeks

 TemperatureHumidityPressure
High75 °F (Apr 27, 3:00 pm)100% (Apr 16, 1:18 am)30.50 "Hg (Apr 16, 1:18 am)
Low30 °F (Apr 23, 6:00 am)30% (Apr 29, 4:00 pm)29.59 "Hg (Apr 16, 5:34 pm)
Average49 °F77%30.00 "Hg
* Reported Apr 15 10:24 pm — Apr 30 10:59 pm, Saint-Hyacinthe, Weather by CustomWeather, © 2017

Note: Actual official high and low records may vary slightly from our data, if they occured in-between our weather recording intervals... More about our weather records

Advertising

Saint-Hyacinthe Weather History for the Previous 24 Hours

Scroll right to see more
 ConditionsComfort  
Time TempWeatherWind HumidityBarometerVisibility
10:59 pm
Sun, Apr 30
43 °FLight rain. Overcast.6 mph87%30.12 "Hg9 mi
10:00 pm41 °FLight rain. Overcast.7 mph93%30.18 "Hg9 mi
9:43 pm43 °FLight rain. Mostly cloudy.6 mph81%30.20 "Hg9 mi
9:00 pm41 °FOvercast.6 mph87%30.18 "Hg9 mi
8:00 pm41 °FLight rain. Mostly cloudy.8 mph87%30.24 "Hg9 mi
7:00 pm43 °FLight rain. Overcast.7 mph76%30.24 "Hg9 mi
6:14 pm43 °FOvercast.5 mph71%30.25 "Hg9 mi
6:00 pm43 °FLight rain. Overcast.7 mph76%30.24 "Hg9 mi
5:49 pm43 °FLight rain. Overcast.5 mph76%30.26 "Hg9 mi
5:00 pm43 °FLight rain. Overcast.7 mph71%30.27 "Hg9 mi
4:00 pm45 °FLight rain. Mostly cloudy.5 mph57%30.27 "Hg9 mi
3:00 pm45 °FLight rain. Overcast.7 mph57%30.26 "Hg9 mi
2:51 pm45 °FLight rain. Mostly cloudy.10 mph53%30.26 "Hg9 mi
2:09 pm45 °FScattered clouds.7 mph57%30.29 "Hg9 mi
1:44 pm45 °FLight rain. Scattered clouds.8 mph53%30.31 "Hg9 mi
1:00 pm43 °FScattered clouds.7 mph57%30.32 "Hg9 mi
12:00 pm41 °FPartly sunny.6 mph57%30.35 "Hg9 mi
11:00 am41 °FPartly sunny.6 mph57%30.39 "Hg9 mi
10:00 am41 °FPartly sunny.13 mph57%30.36 "Hg9 mi
9:00 am39 °FPartly sunny.8 mph61%30.38 "Hg9 mi
8:00 am39 °FPartly sunny.12 mph61%30.38 "Hg9 mi
7:00 am36 °FOvercast.13 mph65%30.38 "Hg9 mi
6:00 am34 °FSunny.12 mph70%30.36 "Hg9 mi
5:00 am36 °FClear.13 mph65%30.33 "Hg9 mi
4:00 am36 °FPassing clouds.12 mph65%30.32 "Hg9 mi
3:00 am36 °FPassing clouds.8 mph70%30.32 "Hg9 mi
2:00 am37 °FClear.6 mph65%30.31 "Hg9 mi
1:00 am39 °FClear.8 mph56%30.28 "Hg9 mi
12:00 am41 °FClear.9 mph53%30.24 "Hg9 mi
Weather by CustomWeather, © 2017

See weather overviewHow to use our weather pages